Time,TemperatureF,DewpointF,PressureIn,WindDirection,WindDirectionDegrees,WindSpeedMPH,WindSpeedGustMPH,Humidity,HourlyPrecipIn,Conditions,Clouds,dailyrainin,SoftwareType,DateUTC
2013-03-04 00:01:00,33.0,26.0,29.49,NNE,24,4.0,13.0,75,0.00,,,0.06,,2013-03-04 05:01:00,
2013-03-04 00:11:00,33.0,26.0,29.49,NNE,24,4.0,13.0,75,0.00,,,0.06,,2013-03-04 05:11:00,
2013-03-04 00:22:00,33.0,26.0,29.49,NE,36,5.0,9.0,76,0.00,,,0.06,,2013-03-04 05:22:00,
2013-03-04 00:32:00,33.0,26.0,29.49,North,349,4.0,9.0,76,0.00,,,0.06,,2013-03-04 05:32:00,
2013-03-04 00:42:00,33.0,26.0,29.49,North,349,4.0,9.0,76,0.00,,,0.06,,2013-03-04 05:42:00,
2013-03-04 00:52:00,33.0,26.0,29.49,ENE,76,3.0,9.0,76,0.00,,,0.06,,2013-03-04 05:52:00,
2013-03-04 01:02:00,33.0,26.0,29.49,NE,42,5.0,10.0,76,0.00,,,0.06,,2013-03-04 06:02:00,
2013-03-04 01:11:00,33.0,26.0,29.49,NE,42,5.0,10.0,76,0.00,,,0.06,,2013-03-04 06:11:00,
2013-03-04 01:22:00,33.0,26.0,29.49,East,86,4.0,9.0,76,0.00,,,0.06,,2013-03-04 06:22:00,
2013-03-04 01:32:00,33.0,26.0,29.49,East,101,6.0,11.0,75,0.00,,,0.06,,2013-03-04 06:32:00,
2013-03-04 01:42:00,33.0,26.0,29.49,East,101,6.0,11.0,75,0.00,,,0.06,,2013-03-04 06:42:00,
2013-03-04 01:51:00,33.0,26.0,29.49,SW,225,5.0,10.0,75,0.00,,,0.06,,2013-03-04 06:51:00,
2013-03-04 02:02:00,32.0,25.0,29.49,NE,38,7.0,18.0,75,0.00,,,0.06,,2013-03-04 07:02:00,
2013-03-04 02:11:00,32.0,25.0,29.49,NE,38,7.0,18.0,75,0.00,,,0.06,,2013-03-04 07:11:00,
2013-03-04 02:22:00,32.0,25.0,29.49,ESE,105,5.0,12.0,75,0.00,,,0.06,,2013-03-04 07:22:00,
2013-03-04 02:32:00,32.0,25.0,29.49,East,84,4.0,8.0,76,0.00,,,0.06,,2013-03-04 07:32:00,
2013-03-04 02:42:00,32.0,25.0,29.49,East,84,4.0,8.0,76,0.00,,,0.06,,2013-03-04 07:42:00,
2013-03-04 02:52:00,32.0,25.0,29.49,NW,325,6.0,12.0,75,0.00,,,0.06,,2013-03-04 07:52:00,
2013-03-04 03:02:00,32.0,25.0,29.49,ESE,119,6.0,14.0,75,0.00,,,0.06,,2013-03-04 08:02:00,
2013-03-04 03:12:00,32.0,25.0,29.49,ESE,119,6.0,14.0,75,0.00,,,0.06,,2013-03-04 08:12:00,
2013-03-04 03:22:00,32.0,25.0,29.49,NNE,22,6.0,15.0,75,0.00,,,0.06,,2013-03-04 08:22:00,
2013-03-04 03:32:00,32.0,25.0,29.49,ENE,57,8.0,15.0,75,0.00,,,0.06,,2013-03-04 08:32:00,
2013-03-04 03:42:00,32.0,25.0,29.49,ENE,57,8.0,15.0,75,0.00,,,0.06,,2013-03-04 08:42:00,
2013-03-04 03:52:00,32.0,25.0,29.49,NNW,348,6.0,14.0,75,0.00,,,0.06,,2013-03-04 08:52:00,
2013-03-04 04:02:00,32.0,25.0,29.48,West,260,6.0,14.0,75,0.00,,,0.06,,2013-03-04 09:02:00,
2013-03-04 04:11:00,32.0,25.0,29.48,West,260,6.0,14.0,75,0.00,,,0.06,,2013-03-04 09:11:00,
2013-03-04 04:22:00,31.0,24.0,29.49,NNW,341,7.0,14.0,75,0.00,,,0.06,,2013-03-04 09:22:00,
2013-03-04 04:32:00,31.0,24.0,29.49,SE,133,7.0,19.0,75,0.00,,,0.06,,2013-03-04 09:32:00,
2013-03-04 04:42:00,31.0,24.0,29.49,SE,133,7.0,19.0,75,0.00,,,0.06,,2013-03-04 09:42:00,
2013-03-04 07:53:00,30.0,22.0,29.50,NNE,17,327.0,327.0,73,0.00,,,0.06,,2013-03-04 12:53:00,
2013-03-04 08:02:00,30.0,22.0,29.50,NNE,18,9.0,19.0,72,0.00,,,0.06,,2013-03-04 13:02:00,
2013-03-04 08:11:00,30.0,22.0,29.50,NNE,18,9.0,19.0,72,0.00,,,0.06,,2013-03-04 13:11:00,
2013-03-04 08:22:00,30.0,22.0,29.50,ENE,65,6.0,14.0,72,0.00,,,0.06,,2013-03-04 13:22:00,
2013-03-04 08:32:00,31.0,23.0,29.50,NE,48,8.0,17.0,71,0.00,,,0.06,,2013-03-04 13:32:00,
2013-03-04 08:42:00,31.0,23.0,29.50,NE,48,8.0,17.0,71,0.00,,,0.06,,2013-03-04 13:42:00,
2013-03-04 08:52:00,31.0,22.0,29.50,NNW,330,9.0,21.0,70,0.00,,,0.06,,2013-03-04 13:52:00,
2013-03-04 09:01:00,31.0,22.0,29.50,NE,49,8.0,17.0,70,0.00,,,0.06,,2013-03-04 14:01:00,
2013-03-04 09:12:00,31.0,22.0,29.50,NE,49,8.0,17.0,70,0.00,,,0.06,,2013-03-04 14:12:00,
2013-03-04 09:22:00,31.0,22.0,29.50,SSE,155,9.0,21.0,69,0.00,,,0.06,,2013-03-04 14:22:00,
2013-03-04 09:32:00,32.0,23.0,29.50,East,97,7.0,21.0,69,0.00,,,0.06,,2013-03-04 14:32:00,
2013-03-04 09:42:00,32.0,23.0,29.50,East,97,7.0,21.0,69,0.00,,,0.06,,2013-03-04 14:42:00,
2013-03-04 09:52:00,33.0,24.0,29.49,NW,310,8.0,16.0,68,0.00,,,0.06,,2013-03-04 14:52:00,
2013-03-04 10:02:00,33.0,24.0,29.49,NNE,27,7.0,12.0,68,0.00,,,0.06,,2013-03-04 15:02:00,
2013-03-04 10:11:00,33.0,24.0,29.49,NNE,27,7.0,12.0,68,0.00,,,0.06,,2013-03-04 15:11:00,
2013-03-04 10:22:00,33.0,23.0,29.49,NE,46,9.0,23.0,66,0.00,,,0.06,,2013-03-04 15:22:00,
2013-03-04 10:32:00,34.0,24.0,29.49,SE,136,6.0,14.0,67,0.00,,,0.06,,2013-03-04 15:32:00,
2013-03-04 10:42:00,34.0,24.0,29.49,SE,136,6.0,14.0,67,0.00,,,0.06,,2013-03-04 15:42:00,
2013-03-04 10:52:00,34.0,24.0,29.49,WSW,250,7.0,13.0,66,0.00,,,0.04,,2013-03-04 15:52:00,
2013-03-04 11:03:00,35.0,24.0,29.49,NE,43,8.0,23.0,64,0.00,,,0.04,,2013-03-04 16:03:00,
2013-03-04 11:11:00,35.0,24.0,29.49,NE,43,8.0,23.0,64,0.00,,,0.04,,2013-03-04 16:11:00,
2013-03-04 11:21:00,35.0,24.0,29.49,West,281,7.0,18.0,64,0.00,,,0.04,,2013-03-04 16:21:00,
2013-03-04 11:32:00,35.0,24.0,29.49,West,276,5.0,15.0,65,0.00,,,0.04,,2013-03-04 16:32:00,
2013-03-04 11:42:00,35.0,24.0,29.49,West,276,5.0,15.0,65,0.00,,,0.04,,2013-03-04 16:42:00,
2013-03-04 11:52:00,35.0,25.0,29.49,ESE,123,11.0,22.0,66,0.00,,,0.02,,2013-03-04 16:52:00,
2013-03-04 12:02:00,35.0,26.0,29.49,NNE,12,12.0,27.0,70,0.00,,,0.02,,2013-03-04 17:02:00,
2013-03-04 12:11:00,35.0,26.0,29.49,NNE,12,12.0,27.0,70,0.00,,,0.02,,2013-03-04 17:11:00,
2013-03-04 12:22:00,36.0,27.0,29.48,NNE,13,7.0,17.0,69,0.00,,,0.02,,2013-03-04 17:22:00,
2013-03-04 12:32:00,36.0,25.0,29.48,NW,321,13.0,25.0,65,0.00,,,0.02,,2013-03-04 17:32:00,
2013-03-04 12:42:00,36.0,25.0,29.48,NW,321,13.0,25.0,65,0.00,,,0.02,,2013-03-04 17:42:00,
2013-03-04 12:52:00,36.0,26.0,29.47,NE,52,10.0,25.0,68,0.00,,,0.00,,2013-03-04 17:52:00,
2013-03-04 13:02:00,35.0,26.0,29.47,ENE,60,10.0,26.0,70,0.00,,,0.00,,2013-03-04 18:02:00,
2013-03-04 13:11:00,35.0,26.0,29.47,ENE,60,10.0,26.0,70,0.00,,,0.00,,2013-03-04 18:11:00,
2013-03-04 13:22:00,35.0,27.0,29.47,ESE,123,7.0,16.0,72,0.00,,,0.00,,2013-03-04 18:22:00,
2013-03-04 13:32:00,34.0,26.0,29.47,NW,321,9.0,20.0,73,0.00,,,0.00,,2013-03-04 18:32:00,
2013-03-04 13:42:00,34.0,26.0,29.47,NW,321,9.0,20.0,73,0.00,,,0.00,,2013-03-04 18:42:00,
2013-03-04 13:52:00,35.0,27.0,29.47,WNW,295,11.0,20.0,73,0.00,,,0.00,,2013-03-04 18:52:00,
2013-03-04 14:02:00,36.0,27.0,29.47,WNW,295,9.0,15.0,70,0.00,,,0.00,,2013-03-04 19:02:00,
2013-03-04 14:12:00,36.0,27.0,29.47,WNW,295,9.0,15.0,70,0.00,,,0.00,,2013-03-04 19:12:00,
2013-03-04 14:22:00,36.0,27.0,29.47,NNE,28,9.0,17.0,69,0.00,,,0.00,,2013-03-04 19:22:00,
2013-03-04 14:32:00,36.0,27.0,29.47,ESE,118,7.0,21.0,69,0.00,,,0.00,,2013-03-04 19:32:00,
2013-03-04 14:42:00,36.0,27.0,29.47,ESE,118,7.0,21.0,69,0.00,,,0.00,,2013-03-04 19:42:00,
2013-03-04 14:52:00,37.0,27.0,29.47,NE,44,8.0,22.0,66,0.00,,,0.00,,2013-03-04 19:52:00,
2013-03-04 15:02:00,37.0,27.0,29.47,SE,138,9.0,16.0,66,0.00,,,0.00,,2013-03-04 20:02:00,
2013-03-04 15:11:00,37.0,27.0,29.47,SE,138,9.0,16.0,66,0.00,,,0.00,,2013-03-04 20:11:00,
2013-03-04 15:22:00,37.0,26.0,29.48,East,98,11.0,21.0,64,0.00,,,0.00,,2013-03-04 20:22:00,
2013-03-04 15:32:00,37.0,26.0,29.48,NNW,333,11.0,24.0,64,0.00,,,0.00,,2013-03-04 20:32:00,
2013-03-04 15:42:00,37.0,26.0,29.48,NNW,333,11.0,24.0,64,0.00,,,0.00,,2013-03-04 20:42:00,
2013-03-04 15:53:00,37.0,26.0,29.48,NNE,27,11.0,29.0,64,0.00,,,0.00,,2013-03-04 20:53:00,
2013-03-04 16:02:00,36.0,26.0,29.49,West,277,11.0,27.0,66,0.00,,,0.00,,2013-03-04 21:02:00,
2013-03-04 16:12:00,36.0,26.0,29.49,West,277,11.0,27.0,66,0.00,,,0.00,,2013-03-04 21:12:00,
2013-03-04 16:22:00,35.0,25.0,29.49,ESE,110,14.0,30.0,67,0.00,,,0.00,,2013-03-04 21:22:00,
2013-03-04 16:32:00,35.0,26.0,29.49,NNE,13,11.0,26.0,68,0.00,,,0.00,,2013-03-04 21:32:00,
2013-03-04 16:42:00,35.0,26.0,29.49,NNE,13,11.0,26.0,68,0.00,,,0.00,,2013-03-04 21:42:00,
2013-03-04 16:53:00,35.0,26.0,29.50,NW,315,8.0,25.0,68,0.00,,,0.00,,2013-03-04 21:53:00,
2013-03-04 17:02:00,35.0,25.0,29.50,West,272,9.0,26.0,66,0.00,,,0.00,,2013-03-04 22:02:00,
2013-03-04 17:12:00,35.0,25.0,29.50,West,272,9.0,26.0,66,0.00,,,0.00,,2013-03-04 22:12:00,
2013-03-04 17:22:00,35.0,25.0,29.51,NNE,26,9.0,24.0,66,0.00,,,0.00,,2013-03-04 22:22:00,
2013-03-04 17:32:00,34.0,24.0,29.52,NE,42,11.0,20.0,67,0.00,,,0.00,,2013-03-04 22:32:00,
2013-03-04 17:42:00,34.0,24.0,29.52,NE,42,11.0,20.0,67,0.00,,,0.00,,2013-03-04 22:42:00,
2013-03-04 17:52:00,34.0,25.0,29.52,North,10,13.0,32.0,68,0.00,,,0.00,,2013-03-04 22:52:00,
2013-03-04 18:02:00,33.0,24.0,29.53,NE,36,10.0,24.0,69,0.00,,,0.00,,2013-03-04 23:02:00,
2013-03-04 18:11:00,33.0,24.0,29.53,NE,36,10.0,24.0,69,0.00,,,0.00,,2013-03-04 23:11:00,
2013-03-04 18:22:00,33.0,24.0,29.54,NE,40,10.0,27.0,69,0.00,,,0.00,,2013-03-04 23:22:00,
2013-03-04 18:32:00,33.0,24.0,29.55,WNW,302,10.0,20.0,69,0.00,,,0.00,,2013-03-04 23:32:00,
2013-03-04 18:42:00,33.0,24.0,29.55,WNW,302,10.0,20.0,69,0.00,,,0.00,,2013-03-04 23:42:00,
2013-03-04 18:52:00,33.0,24.0,29.55,NNW,337,9.0,15.0,70,0.00,,,0.00,,2013-03-04 23:52:00,
2013-03-04 19:02:00,33.0,25.0,29.56,ENE,66,7.0,23.0,71,0.00,,,0.00,,2013-03-05 00:02:00,
2013-03-04 19:12:00,33.0,25.0,29.56,ENE,66,7.0,23.0,71,0.00,,,0.00,,2013-03-05 00:12:00,
2013-03-04 19:22:00,32.0,24.0,29.56,West,271,8.0,17.0,72,0.00,,,0.00,,2013-03-05 00:22:00,
2013-03-04 19:32:00,32.0,24.0,29.56,North,349,7.0,19.0,71,0.00,,,0.00,,2013-03-05 00:32:00,
2013-03-04 19:42:00,32.0,24.0,29.56,North,349,7.0,19.0,71,0.00,,,0.00,,2013-03-05 00:42:00,
2013-03-04 19:52:00,32.0,23.0,29.57,WNW,283,8.0,19.0,70,0.00,,,0.00,,2013-03-05 00:52:00,
2013-03-04 20:02:00,32.0,23.0,29.57,WNW,298,8.0,16.0,70,0.00,,,0.00,,2013-03-05 01:02:00,
2013-03-04 20:12:00,32.0,23.0,29.57,WNW,298,8.0,16.0,70,0.00,,,0.00,,2013-03-05 01:12:00,
2013-03-04 20:22:00,32.0,23.0,29.58,NE,35,8.0,19.0,69,0.00,,,0.00,,2013-03-05 01:22:00,
2013-03-04 20:32:00,32.0,23.0,29.58,ENE,71,5.0,20.0,69,0.00,,,0.00,,2013-03-05 01:32:00,
2013-03-04 20:42:00,32.0,23.0,29.58,ENE,71,5.0,20.0,69,0.00,,,0.00,,2013-03-05 01:42:00,
2013-03-04 20:52:00,31.0,22.0,29.59,ENE,77,8.0,23.0,69,0.00,,,0.00,,2013-03-05 01:52:00,
2013-03-04 21:02:00,32.0,23.0,29.59,ENE,57,8.0,23.0,70,0.00,,,0.00,,2013-03-05 02:02:00,
2013-03-04 21:11:00,32.0,23.0,29.59,ENE,57,8.0,23.0,70,0.00,,,0.00,,2013-03-05 02:11:00,
2013-03-04 21:22:00,31.0,22.0,29.60,North,350,9.0,22.0,69,0.00,,,0.00,,2013-03-05 02:22:00,
2013-03-04 21:32:00,31.0,22.0,29.61,WNW,284,8.0,20.0,70,0.00,,,0.00,,2013-03-05 02:32:00,
2013-03-04 21:42:00,31.0,22.0,29.61,WNW,284,8.0,20.0,70,0.00,,,0.00,,2013-03-05 02:42:00,
2013-03-04 21:53:00,31.0,23.0,29.61,NW,310,7.0,17.0,71,0.00,,,0.00,,2013-03-05 02:53:00,
2013-03-04 22:02:00,31.0,23.0,29.61,NNW,330,8.0,16.0,71,0.00,,,0.00,,2013-03-05 03:02:00,
2013-03-04 22:12:00,31.0,23.0,29.61,NNW,330,8.0,16.0,71,0.00,,,0.00,,2013-03-05 03:12:00,
2013-03-04 22:22:00,31.0,23.0,29.62,NE,36,6.0,16.0,72,0.00,,,0.00,,2013-03-05 03:22:00,
2013-03-04 22:32:00,31.0,23.0,29.62,North,350,7.0,12.0,72,0.00,,,0.00,,2013-03-05 03:32:00,
2013-03-04 22:42:00,31.0,23.0,29.62,North,350,7.0,12.0,72,0.00,,,0.00,,2013-03-05 03:42:00,
2013-03-04 22:52:00,31.0,23.0,29.62,NNE,15,7.0,12.0,72,0.00,,,0.00,,2013-03-05 03:52:00,
2013-03-04 23:02:00,31.0,23.0,29.62,NE,51,7.0,13.0,72,0.00,,,0.00,,2013-03-05 04:02:00,
2013-03-04 23:12:00,31.0,23.0,29.62,NE,51,7.0,13.0,72,0.00,,,0.00,,2013-03-05 04:12:00,
2013-03-04 23:22:00,31.0,23.0,29.62,ENE,67,5.0,13.0,72,0.00,,,0.00,,2013-03-05 04:22:00,
2013-03-04 23:32:00,31.0,23.0,29.63,NE,55,6.0,12.0,72,0.00,,,0.00,,2013-03-05 04:32:00,
2013-03-04 23:42:00,31.0,23.0,29.63,NE,55,6.0,12.0,72,0.00,,,0.00,,2013-03-05 04:42:00,
2013-03-04 23:52:00,31.0,23.0,29.64,North,355,4.0,12.0,73,0.00,,,0.00,,2013-03-05 04:52:00,